This demonstration page uses our WeatherBlox Daily Observations layout. Learn more.

Left ArrowRight Arrow

39.08367, -84.50855

Hourly Observations for March 27, 2019

Temp ( °F °C ) Dew Point ( °F °C ) Humidity (%) Winds ( mph kmh ) Pressure ( in mb ) Visibility ( mi km ) Precip ( " mm )
12:53 am 00:53 Clear 31 -0.6 27 -2.8 85 85 ENE 5 7 30.41 1030 10 16 N/A
1:53 am 01:53 Clear 31 -0.6 27 -2.8 85 85 N N/A 30.41 1030 10 16 N/A
2:53 am 02:53 Clear 30 -1.1 27 -2.8 88 88 N N/A 30.41 1030 10 16 N/A
3:53 am 03:53 Clear 28 -2.2 25 -3.9 88 88 N N/A 30.41 1030 10 16 N/A
4:53 am 04:53 Clear 28 -2.2 25 -3.9 88 88 N N/A 30.41 1030 10 16 N/A
5:53 am 05:53 Clear 28 -2.2 24 -4.4 85 85 N N/A 30.40 1030 10 16 N/A
6:53 am 06:53 Clear 27 -2.8 24 -4.4 89 89 N N/A 30.40 1030 10 16 N/A
7:53 am 07:53 Sunny 27 -2.8 24 -4.4 89 89 N N/A 30.44 1031 10 16 N/A
8:53 am 08:53 Sunny 32 undefined 28 -2.2 85 85 N N/A 30.46 1031 10 16 N/A
9:53 am 09:53 Sunny 39 3.9 25 -3.9 57 57 N N/A 30.45 1031 10 16 N/A
10:53 am 10:53 Sunny 43 6.1 27 -2.8 53 53 N N/A 30.44 1031 10 16 N/A
11:53 am 11:53 Sunny 49 9.4 23 -5 36 36 N N/A 30.43 1031 10 16 N/A
12:53 pm 12:53 Sunny 52 11.1 20 -6.7 28 28 VRB 3 6 30.41 1030 10 16 N/A
1:53 pm 13:53 Sunny 55 12.8 21 -6.1 26 26 VRB 5 7 30.38 1029 10 16 N/A
2:53 pm 14:53 Sunny 58 14.4 22 -5.6 25 25 SW 8 13 30.34 1027 10 16 N/A
3:53 pm 15:53 Sunny 59 15 20 -6.7 22 22 SW 9 15 30.30 1026 10 16 N/A
4:53 pm 16:53 Sunny 60 15.6 17 -8.3 19 19 VRB 5 7 30.29 1026 10 16 N/A
5:53 pm 17:53 Sunny 60 15.6 20 -6.7 21 21 SSW 7 11 30.27 1025 10 16 N/A
6:53 pm 18:53 Sunny 58 14.4 20 -6.7 23 23 S 8 13 30.26 1025 10 16 N/A
7:53 pm 19:53 Sunny 55 12.8 21 -6.1 26 26 SSE 5 7 30.27 1025 10 16 N/A
8:53 pm 20:53 Clear 53 11.7 24 -4.4 32 32 SW 3 6 30.25 1025 10 16 N/A
9:53 pm 21:53 Clear 45 7.2 33 0.6 63 63 N N/A 30.26 1025 10 16 N/A
10:53 pm 22:53 Clear 38 3.3 32 undefined 79 79 S 3 6 30.26 1025 10 16 N/A
11:53 pm 23:53 Clear 40 4.4 32 undefined 73 73 N N/A 30.25 1025 10 16 N/A

Powered by AerisWeather